Terminal Aerodrome Forecast
Issued by NWS

Home | Current Version | Previous Version | Graphics & Text | Print | Product List | Glossary On
Versions: 1 2 3 4 5 6 7 8 9 10 11 12 13 14 15 16 17 18 19
000
FTUS43 KABR 302000 AAA
TAFATY
TAF AMD
KATY 302050Z 3021/3118 20007KT P6SM BKN025
     FM310000 15005KT P6SM SCT250
     FM311100 20014KT P6SM OVC050=

USA.gov is the U.S. government's official web portal to all federal, state and local government web resources and services.